Air Resources Laboratory banner image
Air Resources Laboratory web site National Oceanic and Atmospheric Administration (NOAA)

me roundup


Office: GYX

ASUS41 KGYX 180405
RWRGYX
WEATHER ROUNDUP FOR MAINE AND NEW HAMPSHIRE
NATIONAL WEATHER SERVICE GRAY ME
1200 AM EDT SAT AUG 18 2018

MEZ002-005-006-010-012-015-018-020-021-024-026-027-029-180500-
MAINE

CITY           SKY/WX    TMP DP  RH WIND       PRES   REMARKS
PORTLAND       LGT RAIN  71  70  96 SW3       29.89F
SANFORD        LGT RAIN  68  68 100 CALM      29.90F FOG
BAR HARBOR     CLOUDY    67  65  93 S8        29.92F
WISCASSET      LGT RAIN  70  70 100 CALM      29.91F FOG
ROCKLAND         N/A     66  66 100 VRB3      29.91S FOG
FRYEBURG       RAIN      67  67 100 CALM      29.90F FOG
LEWISTONAUBURN LGT RAIN  68  68 100 CALM      29.90S
AUGUSTA        LGT RAIN  68  68 100 S8        29.89F FOG
WATERVILLE     FAIR      67  66  97 CALM      29.87F
BANGOR         CLOUDY    68  64  87 S8        29.89F
GREENVILLE       N/A     60  60 100 VRB3      29.89F
MILLINOCKET    CLOUDY    62  60  93 SE6       29.91F
HOULTON        RAIN      63  63 100 S6        29.92F FOG
PRESQUE ISLE   LGT RAIN  64  62  93 VRB3      29.92F
FRENCHVILLE    LGT RAIN  64  59  83 W8        29.93S
CARIBOU        LGT RAIN  65  62  90 VRB3      29.91S FOG
$$

NHZ002-005-008-009-011-012-014-180500-
NEW HAMPSHIRE

CITY           SKY/WX    TMP DP  RH WIND       PRES   REMARKS
PORTSMOUTH     LGT RAIN  71  70  97 SE3       29.87F FOG
ROCHESTER      LGT RAIN  69  69 100 CALM      29.89F FOG
MANCHESTER     NOT AVBL
CONCORD        FAIR      72  71  97 SE5       29.88F FOG
LACONIA        LGT RAIN  73  71  93 S5        29.89S
PLYMOUTH       CLOUDY    69  68  94 CALM      29.88F
BERLIN         MOCLDY    67  66  97 N5        29.88F
WHITEFIELD     FAIR      68  67  96 CALM      29.87F FOG
JAFFREY        NOT AVBL
LEBANON        MOCLDY    74  70  87 SW8       29.87F
MT WASHINGTON  FOG       55  55 100 SW25G46     N/A  VSB 0
$$

VTZ005-007-008-180500-
VERMONT

CITY           SKY/WX    TMP DP  RH WIND       PRES   REMARKS
ST JOHNSBURY     N/A     69  69 100 MISG      29.84
MONTPELIER     MOCLDY    71  71 100 S7        29.90F
BURLINGTON     CLOUDY    74  71  91 S9        29.81F
$$

MAZ007-012-024-CTZ003-RIZ002-NYZ038-NYZ072-180500-
SOUTHERN NEW ENGLAND AND NY

CITY           SKY/WX    TMP DP  RH WIND       PRES   REMARKS
BOSTON         CLOUDY    79  72  79 SW12      29.91F
WORCESTER      TSTM      71  69  93 W15G30    29.95S FOG
NANTUCKET      CLOUDY    71  71 100 S9        29.98S FOG
PROVIDENCE     CLOUDY    78  74  87 SW8       29.94S
HARTFORD       TSTM      74  71  91 SW12      29.92S
ALBANY         LGT RAIN  74  71  91 S10       29.89S
NEW YORK CITY  TSTM      76  71  85 NW9       29.93F
$$

ANZ081-ANZ082-ANZ150-NHZ014-MEZ023>029-180500-
COASTAL MARINE OBSERVATIONS

STATION/POSITION TIME  TEMP    WIND        PRES    WAVE
                       AIR SEA DIR/SP/G            HT/PER
                 (UTC) (F)     (DEG/KT/KT) (MB)    (FT/S)
MOUNT DESERT ROC 0400   64     140/ 20/ 21 1013.3F
MATINICUS ROCK   0300   64     150/ 18/ 19 1013.1F
ISLE OF SHOALS   0300   72     240/  8/  8 1012.4F
JEFFREYS LEDGE   0336      69                N/A     2/ 4
CASHES LEDGE BUO 0350   71 70              1012.9F   3/ 4
$$

.............KEY..............
   WCI - WIND CHILL
   TC  - TEMPERATURE IN CELSIUS
   VSB - VISIBILITY IN MILES
   HX  - HEAT INDEX
   FAIR- INDICATES FEW OR NO CLOUDS BELOW 12,000 FT, WITH NO
         SIGNIFICANT WEATHER AND/OR OBSTRUCTIONS TO VISIBILITY.




ASUS41 KGYX 180410
RWRGYX
WEATHER ROUNDUP FOR MAINE AND NEW HAMPSHIRE
NATIONAL WEATHER SERVICE GRAY ME
1200 AM EDT SAT AUG 18 2018

MEZ002-005-006-010-012-015-018-020-021-024-026-027-029-180500-
MAINE

CITY           SKY/WX    TMP DP  RH WIND       PRES   REMARKS
PORTLAND       LGT RAIN  71  70  96 SW3       29.89F
SANFORD        LGT RAIN  68  68 100 CALM      29.90F FOG
BAR HARBOR     CLOUDY    67  65  93 S8        29.92F
WISCASSET      LGT RAIN  70  70 100 CALM      29.91F FOG
ROCKLAND       FOG       66  66 100 VRB3      29.90F VSB 3/4
FRYEBURG       RAIN      67  67 100 CALM      29.90F FOG
LEWISTONAUBURN LGT RAIN  68  68 100 CALM      29.90S
AUGUSTA        LGT RAIN  68  68 100 S8        29.89F FOG
WATERVILLE     FAIR      67  66  97 CALM      29.87F
BANGOR         CLOUDY    68  64  87 S8        29.89F
GREENVILLE       N/A     60  60 100 VRB3      29.89F
MILLINOCKET    CLOUDY    62  60  93 SE6       29.91F
HOULTON        LGT RAIN  62  62 100 S5        29.91F FOG
PRESQUE ISLE   LGT RAIN  64  62  93 VRB3      29.92F
FRENCHVILLE    LGT RAIN  64  59  83 W8        29.93S
CARIBOU        LGT RAIN  65  62  90 VRB3      29.91S FOG
$$

NHZ002-005-008-009-011-012-014-180500-
NEW HAMPSHIRE

CITY           SKY/WX    TMP DP  RH WIND       PRES   REMARKS
PORTSMOUTH     LGT RAIN  71  70  97 SE3       29.87F FOG
ROCHESTER      LGT RAIN  69  69 100 CALM      29.88F FOG
MANCHESTER     NOT AVBL
CONCORD        FAIR      72  71  97 SE5       29.88F FOG
LACONIA        LGT RAIN  73  71  93 S5        29.89S
PLYMOUTH       CLOUDY    69  68  94 CALM      29.88F
BERLIN         MOCLDY    67  66  97 N5        29.88F
WHITEFIELD     FAIR      68  67  96 CALM      29.87F FOG
JAFFREY        NOT AVBL
LEBANON        MOCLDY    74  70  87 SW8       29.87F
MT WASHINGTON  FOG       55  55 100 SW25G46     N/A  VSB 0
$$

VTZ005-007-008-180500-
VERMONT

CITY           SKY/WX    TMP DP  RH WIND       PRES   REMARKS
ST JOHNSBURY     N/A     69  69 100 MISG      29.84
MONTPELIER     MOCLDY    71  71 100 S7        29.90F
BURLINGTON     CLOUDY    74  71  91 S9        29.81F
$$

MAZ007-012-024-CTZ003-RIZ002-NYZ038-NYZ072-180500-
SOUTHERN NEW ENGLAND AND NY

CITY           SKY/WX    TMP DP  RH WIND       PRES   REMARKS
BOSTON         CLOUDY    79  72  79 SW12      29.91F
WORCESTER      TSTM      71  69  93 W15G30    29.95S FOG
NANTUCKET      CLOUDY    71  71 100 S9        29.98S FOG
PROVIDENCE     CLOUDY    78  74  87 SW8       29.94S
HARTFORD       TSTM      74  71  91 SW12      29.92S
ALBANY         LGT RAIN  74  71  91 S10       29.89S
NEW YORK CITY  TSTM      76  71  85 NW9       29.93F
$$

ANZ081-ANZ082-ANZ150-NHZ014-MEZ023>029-180500-
COASTAL MARINE OBSERVATIONS

STATION/POSITION TIME  TEMP    WIND        PRES    WAVE
                       AIR SEA DIR/SP/G            HT/PER
                 (UTC) (F)     (DEG/KT/KT) (MB)    (FT/S)
MOUNT DESERT ROC 0400   64     140/ 20/ 21 1013.3F
MATINICUS ROCK   0300   64     150/ 18/ 19 1013.1F
ISLE OF SHOALS   0300   72     240/  8/  8 1012.4F
JEFFREYS LEDGE   0336      69                N/A     2/ 4
CASHES LEDGE BUO 0350   71 70              1012.9F   3/ 4
$$

.............KEY..............
   WCI - WIND CHILL
   TC  - TEMPERATURE IN CELSIUS
   VSB - VISIBILITY IN MILES
   HX  - HEAT INDEX
   FAIR- INDICATES FEW OR NO CLOUDS BELOW 12,000 FT, WITH NO
         SIGNIFICANT WEATHER AND/OR OBSTRUCTIONS TO VISIBILITY.






Office: BOX ASUS41 KBOX 180410 RWRBOX REGIONAL WEATHER ROUNDUP NATIONAL WEATHER SERVICE BOSTON/NORTON MA 1200 AM EDT SAT AUG 18 2018 NOTE: "FAIR" INDICATES FEW OR NO CLOUDS BELOW 12,000 FEET WITH NO SIGNIFICANT WEATHER AND/OR OBSTRUCTIONS TO VISIBILITY. MAZALL-180500- EASTERN MASSACHUSETTS CITY SKY/WX TMP DP RH WIND PRES REMARKS BOSTON CLOUDY 79 72 79 SW12 29.91F BEVERLY MOCLDY 78 71 79 S8 29.90F LAWRENCE MOCLDY 78 71 79 SW7 29.92F BEDFORD MOCLDY 76 71 85 SW8 29.90S BLUE HILL N/A 75 72 90 S16 29.94S NORWOOD MOCLDY 79 74 84 S7 29.91S MARSHFIELD FAIR 79 75 89 SW9G16 29.92F PLYMOUTH FAIR 78 74 87 SW8 29.95S TAUNTON CLOUDY 79 74 84 SW10G20 29.93F NEW BEDFORD FAIR 78 76 93 SW8 29.94S $$ MAZALL-180500- CAPE COD AND THE ISLANDS CITY SKY/WX TMP DP RH WIND PRES REMARKS FALMOUTH FAIR 77 73 88 SW14 29.96F HYANNIS FAIR 78 75 90 SW13G22 29.95R CHATHAM MOCLDY 75 73 93 SW8 29.97S PROVINCETOWN FAIR 75 72 90 S13 29.95S NANTUCKET CLOUDY 71 71 100 S9 29.98S FOG MARTHAS VNYRD FAIR 75 75 100 S9 29.96F $$ MAZALL-180500- CENTRAL AND WESTERN MASSACHUSETTS CITY SKY/WX TMP DP RH WIND PRES REMARKS WORCESTER TSTM 71 69 93 W15G30 29.95S FOG FITCHBURG RAIN 74 71 91 S8 29.93S FOG ORANGE RAIN 75 72 90 SE6 29.93S FOG SPRINGFIELD LGT RAIN 73 70 88 SW10 29.91F WESTFIELD RAIN 71 70 96 S6 29.91F NORTH ADAMS LGT RAIN 71 69 93 SE3 29.91S PITTSFIELD RAIN 72 68 87 S5 29.93S FOG $$ RIZALL-180500- RHODE ISLAND CITY SKY/WX TMP DP RH WIND PRES REMARKS PROVIDENCE CLOUDY 78 74 87 SW8 29.94S NEWPORT FAIR 77 75 93 S10 29.95S BLOCK ISLAND FAIR 75 74 96 SW13 29.95F SMITHFIELD MOCLDY 74 73 97 VRB5 29.95S WESTERLY FAIR 77 76 96 SW8 29.95F $$ CTZALL-180500- CONNECTICUT CITY SKY/WX TMP DP RH WIND PRES REMARKS BRADLEY INTL TSTM 74 71 91 SW12 29.92S HARTFORD TSTM 77 73 87 W8 29.92F FOG BRIDGEPORT LGT RAIN 74 70 87 W5 29.93F DANBURY HVY RAIN 72 70 93 SW7 29.97S FOG GROTON FAIR 78 74 87 SW13G18 29.94S NEW HAVEN LGT RAIN 76 72 87 VRB3 29.93F CHESTER LGT RAIN 77 72 83 VRB6G14 29.95F MERIDEN LGT RAIN 75 71 87 W3 29.93S WILLIMANTIC HVY RAIN 77 75 93 SW8 29.95R FOG OXFORD LGT RAIN 71 70 96 SW3 29.96F $$ MEZ002-015-021-024-NHZ003-005-008-011-012-014-VTZ005-008-180500- NORTHERN NEW ENGLAND CITY SKY/WX TMP DP RH WIND PRES REMARKS PORTLAND ME LGT RAIN 71 70 96 SW3 29.89F BANGOR ME CLOUDY 68 64 87 S8 29.89F CONCORD NH FAIR 72 71 97 SE5 29.88F FOG MANCHESTER NH LGT RAIN 75 72 90 S9 29.87F NASHUA NH LGT RAIN 73 73 100 VRB3 29.90F FOG PORTSMOUTH NH LGT RAIN 71 70 97 SE3 29.87F FOG JAFFREY NH LGT RAIN 72 71 97 S10 29.95R KEENE NH RAIN N/A N/A N/A S8 29.91F BURLINGTON VT CLOUDY 74 71 91 S9 29.81F MT. WASHINGTON FOG 55 55 100 SW25G46 N/A VSB 0 $$ NYZ052-076-180500- EASTERN NEW YORK CITY SKY/WX TMP DP RH WIND PRES REMARKS ALBANY LGT RAIN 74 71 91 S10 29.89S NEW YORK CITY TSTM 76 71 85 NW9 29.93F $$ ANZALL-180500- MARINE OBSERVATIONS STATION/POSITION TIME TEMP WIND PRES VSBY WAVE AIR SEA DIR/SP/G HT/PER (UTC) (F) (DEG/KT/KT) (MB) (MI) (FT/S) BOSTON BUOY 0350 75 71 170/ 10/ 12 1012.4F 1/ 3 BUZZARDS BAY 0300 75 200/ 16/ 17 1014.8F NANTUCKET SOUND 0350 76 78 200/ 14/ 16 1014.5F 1/ 3 MASS BAY-STELLWA 0304 73 71 200/ 10/ 12 1011.6F 1 7/8 2/ 4 ISLE OF SHOALS 0300 72 240/ 8/ 8 1012.4F S OF BLOCK IS 0343 77 N/A 3/ 5 $$ ......................KEY......................... SKY/WX - SKY CONDITION/PRESENT WEATHER TMP - TEMPERATURE IN FAHRENHEIT DWPT - DEWPOINT IN FAHRENHEIT RH - RELATIVE HUMIDITY IN PERCENT WIND - DIRECTION AND SPEED IN MPH PRES - MEAN SEA LEVEL PRESSURE IN INCHES OF HG WCI - WIND CHILL INDEX VSB - VISIBILITY IN MILES HX - HEAT INDEX TC - TEMPERATURE IN CELSIUS VRB - VARIABLE WIND DIRECTION N/A - NOT AVAILABLE